星链-5698 (STARLINK-5698 )

导读

STARLINK-5698是美国SpaceX公司星链星座的成员,于2023年2月12日发射。星链计划是全球最大的低轨卫星互联网项目,旨在为全球提供高速低延迟宽带服务。该卫星运行在近地轨道,属于星链组网的一部分,助力扩展星座覆盖范围,提升全球互联网接入能力,尤其服务偏远地区与特殊场景连接需求。

基本信息
目录编号:
55623
目录名称:
STARLINK-5698
国际标识:
2023-020BG
轨道中心:
EARTH
卫星名称:
星链-5698
卫星全名:
星链-5698 (STARLINK-5698 )
卫星状态:
在轨 (已飞行1219 天)
发射日期:
2023-02-12 UTC
国别 :
美国 (US)
星等 :
--
轨道信息
数据来源 国际轨道数据 AOE轨道数据
星历时间 2026-06-15T00:33:29+0800
9小时前
查看轨道信息
2026-06-15T01:00:00+0800
9小时前
查看轨道信息
半长轴 6861.199km 6861.205km
偏心率 0.0001411 0.0001475
轨道倾角 43.001° 42.997°
近地点辐角 266.186° 251.507°
升交点赤经 166.469° 166.368°
平近点角 93.883° 209.954°
近地点 482.093km 482.055km
远地点 484.031km 484.081km
周期 94.267分钟 94.267分钟
每日圈数 15.275757 15.275739
详细信息
固有亮度:
5
最大亮度:
2.5
卫星平台:
Starlink v1.5
覆盖范围:
全球
运营商:
太空探索技术公司
运营商所在国:
美国
制造商(研发单位):
太空探索技术公司
制造商所在国:
美国
使用方式:
暂无
卫星简介
星链(Starlink)计划是由太空探索技术公司(SpaceX)提出的一个巨型低轨卫星互联网星座项目,计划在2019年至2024年间在太空搭建由约1.2万颗卫星组成的“星链”网络,其中1584颗将部署在地球上空550千米处的近地轨道,并从2020年开始工作。该卫星仍在工作。
2D轨道图
3D轨道图
轨道高度分析图
轨道倾角分析图
轨道综合分析图
查看轨道综合分析图